Find Kosmos-2532

NORAD ID: 43753 Int'l Des: 2018-097 Owner: VVKOV Country: RU operational
LEOCIRCULARPOLAR

現在のビュー

3D地球を読み込み中...

About Kosmos-2532

Kosmos-2532 (NORAD 43753) is a satellite launched Nov 30, 2018 by VVKOV of RU. It operates in LEO, CIRCULAR, POLAR orbit with a mass of 280.00 kg.

Kosmos-2532について

説明を読み込み中...

次回通過

Passes for default location (London). Set your location on the main map for personalized predictions.

高度履歴

Loading altitude history...

軌道要素

1 43753U 18097C 26159.81425964 -.00000025 00000-0 -25139-3 0 9991
2 43753 82.5131 227.3220 0019302 77.4282 282.8955 12.42909410341231
Epoch: Jun 8, 2026 • Age: 10 hours

現在のステータス

高度 1493.2 km
速度 7.13 km/s
衛星直下点 82.24°N, 9.65°W
打ち上げ日 Nov 30, 2018
運用期間 7.5 years
タイプ other

技術仕様

分類 Payload
質量 280.00 kg
乾燥質量 280.00 kg
総質量 280.00 kg
長さ 1.60 m
直径 0.80 m
スパン 7.00 m
形状 Cyl + Ant
製造者 RESH
バスタイプ Strela-3M
フェーズステータス In Orbit
所有者/国 VVKOV/RU

Most Searched